Meteo Giornale » Osservazioni meteo Italia » Roma-Ciampino

ore: 16:20 - Osservazioni Meteo Roma-Ciampino
Lat. 41° 47' N Lon. 12° 35' E Alt. 129 metri s.l.m.

sereno Europe/Rome

31 °C

Sereno

Temp. 24 Ore

20 °C

33 °C

Ovest

18.5 Km/h

Dew point 16 °C

Umidità 40 %

Visibilità  10 Km

Il sole sorge alle ore 05:42

Il sole tramonta alle ore 20:47

Data e Ora Cielo e Fenomeni T °C DP °C Um. % Pres. hPa Vis. km Vento km/h
Oggi h: 16:20 sereno Sereno 31 16 40 1016 10 O 18.5
Oggi h: 15:50 poco_nuvoloso Poco Nuvoloso 32 17 40 1016 10 O/NO 18.5
Oggi h: 15:20 nuvoloso Nuvoloso 32 17 40 1016 10 O/NO 20.3
Oggi h: 14:50 nuvoloso Nuvoloso 31 18 45 1016 10 O 14.8
Oggi h: 14:20 poco_nuvoloso Poco Nuvoloso 32 14 33 1016 10 N 9.3
Oggi h: 13:50 poco_nuvoloso Poco Nuvoloso 33 14 31 1016 10 N 7.4
Oggi h: 13:20 poco_nuvoloso Poco Nuvoloso 32 15 35 1016 10 N 5.5
Oggi h: 12:50 poco_nuvoloso Poco Nuvoloso 31 15 37 1016 10 NO 9.3
Oggi h: 12:20 poco_nuvoloso Poco Nuvoloso 31 16 40 1017 10 E/NE 9.3
Oggi h: 11:50 sereno Sereno 31 15 37 1017 10 N 7.4
Oggi h: 10:20 sereno Sereno 28 17 51 1017 10 N 3.7
Oggi h: 09:50 sereno Sereno 27 17 54 1017 10 N 3.7
Oggi h: 09:20 sereno Sereno 26 17 57 1017 10 N 3.7
Oggi h: 08:50 sereno Sereno 25 17 61 1017 10 N 3.7
Oggi h: 07:50 sereno Sereno 22 17 73 1017 10 N 5.5
Oggi h: 07:20 sereno Sereno 22 17 73 1016 10 N 5.5
Oggi h: 06:50 sereno Sereno 22 16 68 1016 10 N 3.7
Oggi h: 06:20 sereno Sereno 21 16 73 1016 10 N 1.8
Oggi h: 05:50 sereno Sereno 20 16 77 1016 10 N 1.8
Oggi h: 05:20 sereno Sereno 22 16 68 1016 10 N 1.8
Oggi h: 04:50 sereno Sereno 21 15 68 1016 10 N 1.8
Oggi h: 04:20 sereno Sereno 22 15 64 1016 10 N 1.8
Oggi h: 03:50 sereno Sereno 21 15 68 1016 10 N 3.7
Oggi h: 03:20 sereno Sereno 22 16 68 1016 10 N 3.7
Oggi h: 02:50 sereno Sereno 23 16 64 1016 10 N 3.7
Oggi h: 02:20 sereno Sereno 23 17 68 1016 10 N 3.7
Oggi h: 01:50 sereno Sereno 22 18 78 1016 10 N 3.7
Oggi h: 01:20 sereno Sereno 23 18 73 1016 10 N 3.7
Oggi h: 00:50 sereno Sereno 23 18 73 1016 10 N 3.7
Oggi h: 00:20 sereno Sereno 23 20 83 1016 10 N 3.7
Ieri h: 23:50 sereno Sereno 23 20 83 1016 10 N 5.5
Ieri h: 23:20 sereno Sereno 23 20 83 1016 10 N 3.7
Ieri h: 22:50 sereno Sereno 23 21 88 1016 10 N 5.5
Ieri h: 22:20 sereno Sereno 23 21 88 1016 10 SO 7.4
Ieri h: 21:50 sereno Sereno 24 20 78 1016 10 SO 9.3
Ieri h: 21:20 sereno Sereno 24 20 78 1016 10 O/SO 7.4
Ieri h: 20:50 sereno Sereno 25 20 73 1015 10 O/SO 9.3
Ieri h: 20:20 sereno Sereno 26 20 69 1015 10 O/SO 9.3
Ieri h: 19:50 sereno Sereno 26 19 65 1015 10 O/SO 11.1
Ieri h: 19:20 sereno Sereno 27 19 61 1015 10 O/SO 14.8
Ieri h: 18:50 sereno Sereno 27 19 61 1015 10 SO 14.8
Ieri h: 17:50 sereno Sereno 28 19 58 1015 10 SO 16.7
Ieri h: 17:20 sereno Sereno 29 19 54 1015 10 O/SO 14.8
Ieri h: 16:50 sereno Sereno 29 19 54 1015 10 SO 14.8